TOM926P EGMC-EGCC

Flight info

Callsign TOM926P
Flight time 0h 39m
Altitude 18000
Route EVNAS DCT LAM N57 WELIN T420 ELVOS
Aircraft B738/M-SDE2E3FGHIRWXY/LB1

Departure

Time 2026-04-20 19:07
Airport London Southend Airport (EGMC)

Arrival

Time 2026-04-20 19:47
Airport Manchester Airport (EGCC)
Time Latitude Longitude Altitude Speed Heading
2026-04-20 18:50 51.57004 0.70286 48 ft 0 kts 94°
2026-04-20 18:58 51.57005 0.70265 48 ft 2 kts 94°
2026-04-20 18:58 51.57007 0.70239 47 ft 2 kts 95°
2026-04-20 18:58 51.57010 0.70213 47 ft 2 kts 130°
2026-04-20 18:59 51.57019 0.70203 45 ft 1 kts 182°
2026-04-20 18:59 51.57022 0.70203 46 ft 0 kts 185°
2026-04-20 19:02 51.57006 0.70203 49 ft 5 kts 179°
2026-04-20 19:02 51.56953 0.70200 49 ft 10 kts 186°
2026-04-20 19:02 51.56885 0.70117 48 ft 15 kts 239°
2026-04-20 19:02 51.56883 0.69939 49 ft 17 kts 279°
2026-04-20 19:03 51.56901 0.69757 52 ft 16 kts 279°
2026-04-20 19:03 51.56919 0.69581 52 ft 16 kts 273°
2026-04-20 19:03 51.56905 0.69412 54 ft 15 kts 261°
2026-04-20 19:03 51.56880 0.69256 52 ft 14 kts 235°
2026-04-20 19:04 51.56837 0.69127 55 ft 2 kts 277°
2026-04-20 19:04 51.56847 0.69103 50 ft 6 kts 308°
2026-04-20 19:04 51.56886 0.69020 55 ft 12 kts 270°
2026-04-20 19:04 51.56846 0.68878 55 ft 17 kts 235°
2026-04-20 19:05 51.56753 0.68685 56 ft 25 kts 232°
2026-04-20 19:05 51.56653 0.68470 54 ft 23 kts 233°
2026-04-20 19:05 51.56564 0.68278 58 ft 17 kts 223°
2026-04-20 19:05 51.56519 0.68226 54 ft 0 kts 248°
2026-04-20 19:06 51.56522 0.68220 60 ft 1 kts 298°
2026-04-20 19:06 51.56537 0.68227 58 ft 6 kts 25°
2026-04-20 19:06 51.56555 0.68254 57 ft 2 kts 51°
2026-04-20 19:06 51.56571 0.68288 55 ft 7 kts 55°
2026-04-20 19:07 51.56671 0.68512 59 ft 61 kts 54°
2026-04-20 19:07 51.57086 0.69439 52 ft 141 kts 54°
2026-04-20 19:07 51.57767 0.70961 317 ft 188 kts 54°
2026-04-20 19:07 51.58553 0.72683 1201 ft 196 kts 47°
2026-04-20 19:08 51.59729 0.73517 2248 ft 192 kts
2026-04-20 19:08 51.61779 0.70588 2988 ft 241 kts 284°
2026-04-20 19:08 51.61708 0.67852 3015 ft 248 kts 264°
2026-04-20 19:09 51.61551 0.65085 2999 ft 248 kts 272°
2026-04-20 19:09 51.61670 0.62356 2986 ft 244 kts 282°
2026-04-20 19:09 51.62051 0.59676 3227 ft 247 kts 290°
2026-04-20 19:09 51.62624 0.57080 3781 ft 245 kts 296°
2026-04-20 19:10 51.63353 0.54527 4337 ft 256 kts 300°
2026-04-20 19:10 51.64186 0.51956 4873 ft 261 kts 302°
2026-04-20 19:10 51.65055 0.49408 5394 ft 259 kts 302°
2026-04-20 19:10 51.65939 0.46872 5910 ft 260 kts 302°
2026-04-20 19:11 51.66718 0.44242 6444 ft 261 kts 298°
2026-04-20 19:11 51.67678 0.41785 7158 ft 261 kts 309°
2026-04-20 19:11 51.68788 0.39476 7950 ft 266 kts 310°
2026-04-20 19:11 51.69947 0.37122 8811 ft 271 kts 310°
2026-04-20 19:12 51.71120 0.34712 9662 ft 275 kts 310°
2026-04-20 19:12 51.72299 0.32248 10500 ft 279 kts 309°
2026-04-20 19:12 51.73516 0.29672 10866 ft 301 kts 309°
2026-04-20 19:12 51.74830 0.26859 11059 ft 326 kts 308°
2026-04-20 19:13 51.76207 0.23878 11634 ft 336 kts 308°
2026-04-20 19:13 51.77597 0.20841 12485 ft 337 kts 308°
2026-04-20 19:13 51.78539 0.18774 13025 ft 339 kts 307°
2026-04-20 19:13 51.79944 0.15682 13790 ft 344 kts 307°
2026-04-20 19:14 51.81359 0.12556 14599 ft 344 kts 307°
2026-04-20 19:14 51.82778 0.09417 15291 ft 349 kts 307°
2026-04-20 19:14 51.84213 0.06235 15983 ft 352 kts 307°
2026-04-20 19:14 51.85658 0.03028 16725 ft 354 kts 307°
2026-04-20 19:15 51.87114 -0.00209 17420 ft 357 kts 307°
2026-04-20 19:15 51.88580 -0.03471 18113 ft 359 kts 306°
2026-04-20 19:15 51.90048 -0.06743 18250 ft 359 kts 306°
2026-04-20 19:15 51.91509 -0.10004 18266 ft 357 kts 306°
2026-04-20 19:16 51.92965 -0.13257 18277 ft 357 kts 306°
2026-04-20 19:16 51.94407 -0.16482 18279 ft 358 kts 306°
2026-04-20 19:16 51.95867 -0.19752 18276 ft 359 kts 306°
2026-04-20 19:16 51.97330 -0.23032 18278 ft 359 kts 306°
2026-04-20 19:17 51.98795 -0.26323 18270 ft 360 kts 306°
2026-04-20 19:17 52.00280 -0.29660 18271 ft 359 kts 306°
2026-04-20 19:17 52.01721 -0.32905 18272 ft 359 kts 306°
2026-04-20 19:17 52.03198 -0.36233 18271 ft 358 kts 306°
2026-04-20 19:18 52.04630 -0.39466 18271 ft 358 kts 306°
2026-04-20 19:18 52.06080 -0.42744 18275 ft 357 kts 306°
2026-04-20 19:18 52.07530 -0.46024 18279 ft 357 kts 306°
2026-04-20 19:18 52.08978 -0.49305 18275 ft 357 kts 306°
2026-04-20 19:19 52.10422 -0.52579 18279 ft 357 kts 306°
2026-04-20 19:19 52.11866 -0.55860 18288 ft 356 kts 306°
2026-04-20 19:19 52.13308 -0.59139 18287 ft 356 kts 306°
2026-04-20 19:19 52.14749 -0.62420 18289 ft 356 kts 306°
2026-04-20 19:20 52.16189 -0.65703 18293 ft 356 kts 306°
2026-04-20 19:20 52.17628 -0.68989 18293 ft 356 kts 306°
2026-04-20 19:20 52.19066 -0.72276 18301 ft 356 kts 306°
2026-04-20 19:20 52.20504 -0.75566 18296 ft 356 kts 306°
2026-04-20 19:21 52.21941 -0.78859 18295 ft 357 kts 306°
2026-04-20 19:21 52.23381 -0.82144 18301 ft 357 kts 308°
2026-04-20 19:21 52.25050 -0.85131 18303 ft 356 kts 317°
2026-04-20 19:21 52.27002 -0.87606 18301 ft 356 kts 327°
2026-04-20 19:22 52.29114 -0.89717 18309 ft 356 kts 329°
2026-04-20 19:22 52.31248 -0.91791 18307 ft 357 kts 329°
2026-04-20 19:22 52.33386 -0.93869 18302 ft 357 kts 329°
2026-04-20 19:22 52.35516 -0.95957 18306 ft 357 kts 329°
2026-04-20 19:23 52.37644 -0.98059 18307 ft 358 kts 328°
2026-04-20 19:23 52.39772 -1.00173 18311 ft 358 kts 328°
2026-04-20 19:23 52.41899 -1.02294 18306 ft 358 kts 328°
2026-04-20 19:23 52.44025 -1.04417 18279 ft 358 kts 328°
2026-04-20 19:24 52.46152 -1.06545 18272 ft 358 kts 328°
2026-04-20 19:24 52.48281 -1.08676 18264 ft 358 kts 328°
2026-04-20 19:24 52.50408 -1.10818 18256 ft 358 kts 328°
2026-04-20 19:24 52.52527 -1.12968 18247 ft 359 kts 328°
2026-04-20 19:25 52.54649 -1.15124 18241 ft 359 kts 328°
2026-04-20 19:25 52.56772 -1.17280 18236 ft 359 kts 328°
2026-04-20 19:25 52.58895 -1.19429 18223 ft 359 kts 328°
2026-04-20 19:25 52.61019 -1.21579 18219 ft 359 kts 328°
2026-04-20 19:26 52.63146 -1.23734 18218 ft 359 kts 328°
2026-04-20 19:26 52.65269 -1.25886 18211 ft 357 kts 328°
2026-04-20 19:26 52.67340 -1.27990 18196 ft 344 kts 328°
2026-04-20 19:26 52.69338 -1.30023 18194 ft 332 kts 328°
2026-04-20 19:27 52.71275 -1.31993 18198 ft 323 kts 328°
2026-04-20 19:27 52.73160 -1.33909 18193 ft 313 kts 328°
2026-04-20 19:27 52.74967 -1.35748 18297 ft 297 kts 328°
2026-04-20 19:27 52.76675 -1.37488 18297 ft 281 kts 328°
2026-04-20 19:28 52.78286 -1.39131 18296 ft 263 kts 328°
2026-04-20 19:28 52.79800 -1.40677 18300 ft 250 kts 328°
2026-04-20 19:28 52.81257 -1.42164 18197 ft 247 kts 328°
2026-04-20 19:28 52.82751 -1.43691 17679 ft 260 kts 328°
2026-04-20 19:29 52.84348 -1.45323 16705 ft 280 kts 329°
2026-04-20 19:29 52.86067 -1.47082 15578 ft 300 kts 329°
2026-04-20 19:29 52.87835 -1.48895 15191 ft 294 kts 329°
2026-04-20 19:29 52.89563 -1.50669 14806 ft 289 kts 329°
2026-04-20 19:30 52.91251 -1.52404 14490 ft 284 kts 329°
2026-04-20 19:30 52.92927 -1.54127 14172 ft 282 kts 329°
2026-04-20 19:30 52.94600 -1.55849 13846 ft 286 kts 329°
2026-04-20 19:30 52.96319 -1.57619 13523 ft 297 kts 329°
2026-04-20 19:31 52.98096 -1.59449 13169 ft 300 kts 329°
2026-04-20 19:31 52.99842 -1.61252 12815 ft 291 kts 329°
2026-04-20 19:31 53.01532 -1.63000 12499 ft 282 kts 330°
2026-04-20 19:31 53.03176 -1.64700 12174 ft 276 kts 330°
2026-04-20 19:32 53.04796 -1.66378 11894 ft 273 kts 329°
2026-04-20 19:32 53.06261 -1.68408 11592 ft 279 kts 314°
2026-04-20 19:32 53.07550 -1.70921 11291 ft 293 kts 311°
2026-04-20 19:32 53.08854 -1.73556 10979 ft 294 kts 312°
2026-04-20 19:33 53.10131 -1.76100 10842 ft 279 kts 313°
2026-04-20 19:33 53.11357 -1.78517 10593 ft 269 kts 313°
2026-04-20 19:33 53.12545 -1.80840 10454 ft 257 kts 313°
2026-04-20 19:33 53.13691 -1.83070 10285 ft 253 kts 314°
2026-04-20 19:34 53.14849 -1.85321 9765 ft 256 kts 314°
2026-04-20 19:34 53.15982 -1.87528 9521 ft 247 kts 314°
2026-04-20 19:34 53.17095 -1.89695 9136 ft 245 kts 313°
2026-04-20 19:34 53.18203 -1.91856 8735 ft 244 kts 313°
2026-04-20 19:35 53.19292 -1.93978 8356 ft 243 kts 313°
2026-04-20 19:35 53.20401 -1.96143 7975 ft 242 kts 313°
2026-04-20 19:35 53.21492 -1.98273 7606 ft 241 kts 313°
2026-04-20 19:35 53.22574 -2.00391 7249 ft 239 kts 313°
2026-04-20 19:36 53.23650 -2.02499 6892 ft 238 kts 313°
2026-04-20 19:36 53.24552 -2.04796 6525 ft 238 kts 288°
2026-04-20 19:36 53.24625 -2.07412 6410 ft 226 kts 257°
2026-04-20 19:36 53.24143 -2.09910 6411 ft 220 kts 251°
2026-04-20 19:37 53.23623 -2.12264 6324 ft 212 kts 250°
2026-04-20 19:37 53.23128 -2.14479 6304 ft 202 kts 250°
2026-04-20 19:37 53.22641 -2.16645 6305 ft 197 kts 250°
2026-04-20 19:37 53.22160 -2.18788 6256 ft 197 kts 250°
2026-04-20 19:38 53.21677 -2.20938 6010 ft 194 kts 250°
2026-04-20 19:38 53.21211 -2.23024 5590 ft 196 kts 250°
2026-04-20 19:38 53.20744 -2.25148 5212 ft 195 kts 250°
2026-04-20 19:38 53.20282 -2.27281 4787 ft 196 kts 250°
2026-04-20 19:39 53.19830 -2.29406 4531 ft 192 kts 250°
2026-04-20 19:39 53.19392 -2.31499 4201 ft 190 kts 250°
2026-04-20 19:39 53.18969 -2.33565 3880 ft 187 kts 250°
2026-04-20 19:39 53.18563 -2.35566 3661 ft 177 kts 250°
2026-04-20 19:40 53.18169 -2.37528 3276 ft 178 kts 250°
2026-04-20 19:40 53.17785 -2.39469 3030 ft 178 kts 250°
2026-04-20 19:40 53.17420 -2.41446 3020 ft 179 kts 258°
2026-04-20 19:40 53.17604 -2.43437 3008 ft 175 kts 304°
2026-04-20 19:41 53.18500 -2.44773 3031 ft 174 kts 331°
2026-04-20 19:41 53.19520 -2.45880 2979 ft 176 kts 330°
2026-04-20 19:41 53.20534 -2.46994 2995 ft 174 kts 330°
2026-04-20 19:41 53.21549 -2.48103 2999 ft 174 kts 330°
2026-04-20 19:42 53.22563 -2.49205 2998 ft 174 kts 332°
2026-04-20 19:42 53.23680 -2.49644 2979 ft 162 kts 20°
2026-04-20 19:42 53.24565 -2.48614 3081 ft 159 kts 48°
2026-04-20 19:42 53.25383 -2.47277 3026 ft 168 kts 46°
2026-04-20 19:43 53.26305 -2.46099 2938 ft 163 kts 42°
2026-04-20 19:43 53.27123 -2.44844 2742 ft 157 kts 50°
2026-04-20 19:43 53.27809 -2.43492 2446 ft 149 kts 55°
2026-04-20 19:43 53.28433 -2.42130 2121 ft 145 kts 57°
2026-04-20 19:44 53.29018 -2.40827 1863 ft 137 kts 57°
2026-04-20 19:44 53.29592 -2.39559 1481 ft 136 kts 56°
2026-04-20 19:44 53.30183 -2.38322 1278 ft 139 kts 55°
2026-04-20 19:44 53.30796 -2.37062 1168 ft 138 kts 54°
2026-04-20 19:45 53.31413 -2.35838 1063 ft 138 kts 55°
2026-04-20 19:45 53.32008 -2.34571 954 ft 140 kts 56°
2026-04-20 19:45 53.32607 -2.33250 851 ft 145 kts 55°
2026-04-20 19:45 53.33242 -2.31959 696 ft 142 kts 51°
2026-04-20 19:46 53.33849 -2.30668 502 ft 140 kts 54°
2026-04-20 19:46 53.34467 -2.29374 335 ft 144 kts 53°
2026-04-20 19:46 53.35092 -2.28092 240 ft 136 kts 52°
2026-04-20 19:46 53.35552 -2.27126 242 ft 57 kts 51°
2026-04-20 19:47 53.35699 -2.26823 247 ft 29 kts 51°
2026-04-20 19:47 53.35811 -2.26682 250 ft 18 kts 360°
2026-04-20 19:47 53.35913 -2.26706 249 ft 7 kts 351°
2026-04-20 19:47 53.35925 -2.26710 249 ft 0 kts 350°
2026-04-20 19:48 53.35926 -2.26712 249 ft 0 kts 330°
2026-04-20 19:48 53.35933 -2.26734 249 ft 1 kts 292°
2026-04-20 19:48 53.35931 -2.26752 249 ft 3 kts 258°
2026-04-20 19:49 53.35928 -2.26762 249 ft 0 kts 239°
2026-04-20 19:50 53.35925 -2.26770 249 ft 3 kts 239°
2026-04-20 19:50 53.35902 -2.26828 248 ft 9 kts 234°
2026-04-20 19:50 53.35862 -2.26922 247 ft 11 kts 234°
2026-04-20 19:51 53.35822 -2.27029 245 ft 11 kts 233°
2026-04-20 19:51 53.35775 -2.27132 244 ft 11 kts 231°
2026-04-20 19:51 53.35727 -2.27232 243 ft 11 kts 232°
2026-04-20 19:51 53.35681 -2.27329 242 ft 11 kts 231°
2026-04-20 19:52 53.35634 -2.27425 240 ft 11 kts 230°
2026-04-20 19:52 53.35633 -2.27543 240 ft 11 kts 306°
2026-04-20 19:52 53.35695 -2.27614 240 ft 11 kts 333°
2026-04-20 19:52 53.35763 -2.27661 240 ft 10 kts 338°
2026-04-20 19:53 53.35815 -2.27738 240 ft 10 kts 312°
2026-04-20 19:53 53.35863 -2.27825 239 ft 10 kts 316°
2026-04-20 19:53 53.35927 -2.27846 240 ft 10 kts 358°
2026-04-20 19:53 53.35994 -2.27834 240 ft 10 kts
2026-04-20 19:54 53.36058 -2.27848 241 ft 9 kts 334°
2026-04-20 19:54 53.36106 -2.27917 241 ft 9 kts 314°
2026-04-20 19:54 53.36154 -2.27997 240 ft 10 kts 315°
2026-04-20 19:54 53.36210 -2.28089 240 ft 12 kts 316°
2026-04-20 19:55 53.36273 -2.28197 240 ft 13 kts 314°
2026-04-20 19:55 53.36337 -2.28303 240 ft 13 kts 316°
2026-04-20 19:55 53.36398 -2.28408 240 ft 12 kts 314°
2026-04-20 19:55 53.36459 -2.28510 240 ft 12 kts 316°
2026-04-20 19:56 53.36498 -2.28576 240 ft 12 kts 315°
2026-04-20 19:56 53.36568 -2.28714 239 ft 12 kts 295°
2026-04-20 19:56 53.36623 -2.28773 239 ft 7 kts 12°
2026-04-20 19:56 53.36663 -2.28727 240 ft 7 kts 37°
2026-04-20 19:57 53.36679 -2.28717 240 ft 0 kts
2026-04-20 19:57 53.36690 -2.28730 240 ft 6 kts 326°
2026-04-20 19:57 53.36731 -2.28794 240 ft 5 kts 315°
2026-04-20 19:57 53.36739 -2.28807 240 ft 0 kts 315°